• în Republica Moldova
  • Lista ţărilor
  • Pe 7 zile
  • Temperatura apei
  • Hartă satelitară
  • Meteo pe hartă
  • Widget-uri
  • user-avatar
    Intrare

    Meteo pe oră la Kerns

    Astăzi, 19 Ianuarie, Vineri

    Timp Temperatura Precipitaţii Vânt Presiune Umiditate
    00:00 +27°C° 0,1 mm 6 m/s 758 mmHg 92%
    01:00 +26°C° 0,1 mm 5 m/s 758 mmHg 93%
    02:00 +26°C° 0,2 mm 5 m/s 757 mmHg 94%
    03:00 +26°C° 0,2 mm 5 m/s 757 mmHg 94%
    04:00 +26°C° 0 mm 5 m/s 757 mmHg 94%
    05:00 +26°C° 0,5 mm 5 m/s 757 mmHg 93%
    06:00 +27°C° 0,5 mm 5 m/s 757 mmHg 93%
    07:00 +27°C° 0,5 mm 5 m/s 757 mmHg 92%
    08:00 +28°C° 0,7 mm 5 m/s 757 mmHg 87%
    09:00 +29°C° 0,7 mm 5 m/s 757 mmHg 83%
    10:00 +29°C° 0 mm 5 m/s 758 mmHg 83%
    11:00 +29°C° 1,3 mm 5 m/s 757 mmHg 86%
    12:00 +29°C° 1,3 mm 5 m/s 757 mmHg 88%
    13:00 +28°C° 1,3 mm 5 m/s 756 mmHg 90%
    14:00 +28°C° 1,2 mm 5 m/s 756 mmHg 91%
    15:00 +28°C° 1,2 mm 5 m/s 756 mmHg 92%
    16:00 +27°C° 0 mm 5 m/s 756 mmHg 94%
    17:00 +27°C° 0,7 mm 5 m/s 756 mmHg 94%
    18:00 +27°C° 0,7 mm 5 m/s 756 mmHg 95%
    19:00 +27°C° 0,7 mm 5 m/s 756 mmHg 95%
    20:00 +27°C° 0,8 mm 5 m/s 756 mmHg 95%
    21:00 +27°C° 0,8 mm 5 m/s 757 mmHg 95%
    22:00 +26°C° 0 mm 5 m/s 757 mmHg 94%
    23:00 +26°C° 0,5 mm 5 m/s 757 mmHg 95%

    Mâine, 20 Ianuarie, Sâmbătă

    Timp Temperatura Precipitaţii Vânt Presiune Umiditate
    00:00 +26°C° 0,5 mm 5 m/s 756 mmHg 95%
    01:00 +26°C° 0,5 mm 4 m/s 756 mmHg 95%
    02:00 +26°C° 0,3 mm 4 m/s 756 mmHg 95%
    03:00 +25°C° 0,3 mm 4 m/s 755 mmHg 95%
    04:00 +25°C° 0,3 mm 4 m/s 755 mmHg 95%
    05:00 +25°C° 0,2 mm 4 m/s 755 mmHg 94%
    06:00 +25°C° 0,2 mm 4 m/s 756 mmHg 94%
    07:00 +26°C° 0,2 mm 4 m/s 756 mmHg 93%
    08:00 +27°C° 0,3 mm 5 m/s 756 mmHg 86%
    09:00 +29°C° 0,3 mm 5 m/s 756 mmHg 80%
    10:00 +32°C° 0,3 mm 5 m/s 756 mmHg 73%
    11:00 +32°C° 0,4 mm 5 m/s 755 mmHg 73%
    12:00 +32°C° 0,4 mm 5 m/s 755 mmHg 73%
    13:00 +33°C° 0,4 mm 5 m/s 755 mmHg 73%
    14:00 +32°C° 0,7 mm 5 m/s 754 mmHg 75%
    15:00 +30°C° 0,7 mm 5 m/s 754 mmHg 78%
    16:00 +30°C° 0,7 mm 6 m/s 754 mmHg 81%
    17:00 +29°C° 1,1 mm 5 m/s 754 mmHg 85%
    18:00 +27°C° 1,1 mm 5 m/s 754 mmHg 89%
    19:00 +26°C° 1,1 mm 5 m/s 755 mmHg 94%
    20:00 +26°C° 0,7 mm 5 m/s 755 mmHg 94%
    21:00 +26°C° 0,7 mm 5 m/s 755 mmHg 95%
    22:00 +26°C° 0,7 mm 5 m/s 756 mmHg 95%
    23:00 +26°C° 0,3 mm 4 m/s 755 mmHg 95%

    Poimâine, 21 Ianuarie, Duminică

    Timp Temperatura Precipitaţii Vânt Presiune Umiditate
    00:00 +26°C° 0,3 mm 4 m/s 755 mmHg 95%
    01:00 +26°C° 0,3 mm 4 m/s 755 mmHg 95%
    02:00 +25°C° 0,1 mm 4 m/s 755 mmHg 95%
    03:00 +25°C° 0,1 mm 4 m/s 754 mmHg 94%
    04:00 +25°C° 0,1 mm 4 m/s 754 mmHg 93%
    05:00 +25°C° 0,2 mm 4 m/s 754 mmHg 92%
    06:00 +25°C° 0,2 mm 4 m/s 755 mmHg 92%
    07:00 +25°C° 0,2 mm 5 m/s 755 mmHg 91%
    08:00 +25°C° 0,4 mm 5 m/s 755 mmHg 88%
    09:00 +26°C° 0,4 mm 5 m/s 755 mmHg 86%
    10:00 +27°C° 0,4 mm 5 m/s 755 mmHg 84%
    11:00 +28°C° 0,4 mm 5 m/s 755 mmHg 84%
    12:00 +28°C° 0,4 mm 6 m/s 754 mmHg 84%
    13:00 +29°C° 0,4 mm 6 m/s 754 mmHg 84%
    14:00 +28°C° 0,7 mm 6 m/s 754 mmHg 86%
    15:00 +27°C° 0,7 mm 6 m/s 753 mmHg 88%
    16:00 +27°C° 0,7 mm 6 m/s 753 mmHg 90%
    17:00 +26°C° 1,5 mm 7 m/s 753 mmHg 90%
    18:00 +26°C° 1,5 mm 7 m/s 754 mmHg 90%
    19:00 +24°C° 1,5 mm 7 m/s 754 mmHg 90%
    20:00 +24°C° 1,3 mm 6 m/s 755 mmHg 89%
    21:00 +24°C° 1,3 mm 6 m/s 755 mmHg 89%
    22:00 +24°C° 1,3 mm 6 m/s 755 mmHg 88%
    23:00 +24°C° 1,4 mm 6 m/s 755 mmHg 89%

    22 Ianuarie, Luni

    Timp Temperatura Precipitaţii Vânt Presiune Umiditate
    00:00 +24°C° 1,4 mm 6 m/s 754 mmHg 91%
    01:00 +24°C° 1,4 mm 6 m/s 754 mmHg 92%
    02:00 +25°C° 2,4 mm 5 m/s 754 mmHg 93%
    03:00 +25°C° 2,4 mm 5 m/s 753 mmHg 95%
    04:00 +25°C° 2,4 mm 5 m/s 753 mmHg 96%
    05:00 +25°C° 2,2 mm 5 m/s 753 mmHg 96%
    06:00 +25°C° 2,2 mm 5 m/s 754 mmHg 96%
    07:00 +25°C° 2,2 mm 5 m/s 754 mmHg 95%
    08:00 +25°C° 1,2 mm 5 m/s 754 mmHg 95%
    09:00 +25°C° 1,2 mm 5 m/s 755 mmHg 95%
    10:00 +26°C° 1,2 mm 6 m/s 755 mmHg 95%
    11:00 +26°C° 0,7 mm 5 m/s 754 mmHg 94%
    12:00 +27°C° 0,7 mm 5 m/s 754 mmHg 92%
    13:00 +27°C° 0,7 mm 5 m/s 753 mmHg 91%
    14:00 +27°C° 1,4 mm 5 m/s 753 mmHg 92%
    15:00 +27°C° 1,4 mm 5 m/s 753 mmHg 94%
    16:00 +26°C° 1,4 mm 4 m/s 752 mmHg 95%
    17:00 +26°C° 2,1 mm 4 m/s 753 mmHg 96%
    18:00 +26°C° 2,1 mm 4 m/s 753 mmHg 96%
    19:00 +26°C° 2,1 mm 4 m/s 754 mmHg 97%
    20:00 +26°C° 1,5 mm 4 m/s 754 mmHg 97%
    21:00 +26°C° 1,5 mm 3 m/s 754 mmHg 98%
    22:00 +26°C° 1,5 mm 3 m/s 755 mmHg 98%
    23:00 +26°C° 1,6 mm 2 m/s 754 mmHg 98%

    23 Ianuarie, Marţi

    Timp Temperatura Precipitaţii Vânt Presiune Umiditate
    00:00 +26°C° 1,6 mm 2 m/s 754 mmHg 98%
    01:00 +26°C° 1,6 mm 1 m/s 753 mmHg 99%
    02:00 +26°C° 0,7 mm 1 m/s 753 mmHg 99%
    03:00 +26°C° 0,7 mm 1 m/s 753 mmHg 98%
    04:00 +26°C° 0,7 mm 1 m/s 752 mmHg 98%
    05:00 +26°C° 0,3 mm 1 m/s 753 mmHg 98%
    06:00 +27°C° 0,3 mm 1 m/s 753 mmHg 98%
    07:00 +27°C° 0,3 mm 1 m/s 754 mmHg 97%
    08:00 +28°C° 0,5 mm 1 m/s 754 mmHg 95%
    09:00 +28°C° 0,5 mm 1 m/s 754 mmHg 92%
    10:00 +29°C° 0,5 mm 1 m/s 754 mmHg 89%
    11:00 +30°C° 0,5 mm 1 m/s 754 mmHg 87%
    12:00 +31°C° 0,5 mm 1 m/s 753 mmHg 85%
    13:00 +31°C° 0,5 mm 2 m/s 753 mmHg 83%
    14:00 +31°C° 0,4 mm 2 m/s 752 mmHg 85%
    15:00 +30°C° 0,4 mm 2 m/s 752 mmHg 87%
    16:00 +30°C° 0,4 mm 2 m/s 752 mmHg 89%
    17:00 +29°C° 0,5 mm 2 m/s 752 mmHg 92%
    18:00 +28°C° 0,5 mm 2 m/s 753 mmHg 94%
    19:00 +28°C° 0,5 mm 2 m/s 753 mmHg 97%
    20:00 +28°C° 1,4 mm 2 m/s 753 mmHg 97%
    21:00 +27°C° 1,4 mm 1 m/s 754 mmHg 97%
    22:00 +27°C° 1,4 mm 1 m/s 754 mmHg 97%
    23:00 +27°C° 1 mm 1 m/s 754 mmHg 97%

    24 Ianuarie, Miercuri

    Timp Temperatura Precipitaţii Vânt Presiune Umiditate
    00:00 +27°C° 1 mm 1 m/s 753 mmHg 98%
    01:00 +27°C° 1 mm 1 m/s 753 mmHg 98%
    02:00 +27°C° 0,6 mm 1 m/s 753 mmHg 98%
    03:00 +27°C° 0,6 mm 1 m/s 752 mmHg 98%
    04:00 +27°C° 0,6 mm 1 m/s 752 mmHg 98%
    05:00 +27°C° 0 mm 1 m/s 752 mmHg 98%
    06:00 +27°C° 0 mm 1 m/s 753 mmHg 98%
    07:00 +27°C° 0 mm 1 m/s 753 mmHg 97%
    08:00 +28°C° 0,3 mm 1 m/s 753 mmHg 92%
    09:00 +30°C° 0,3 mm 1 m/s 753 mmHg 88%
    10:00 +31°C° 0,3 mm 1 m/s 753 mmHg 83%
    11:00 +31°C° 1,1 mm 2 m/s 753 mmHg 83%
    12:00 +31°C° 1,1 mm 2 m/s 752 mmHg 83%
    13:00 +32°C° 1,1 mm 2 m/s 752 mmHg 82%
    14:00 +31°C° 1,3 mm 2 m/s 751 mmHg 86%
    15:00 +30°C° 1,3 mm 2 m/s 751 mmHg 91%
    16:00 +29°C° 1,3 mm 2 m/s 751 mmHg 95%
    17:00 +29°C° 0,8 mm 2 m/s 751 mmHg 95%
    18:00 +28°C° 0,8 mm 2 m/s 751 mmHg 96%
    19:00 +28°C° 0,8 mm 2 m/s 751 mmHg 96%
    20:00 +28°C° 0,6 mm 2 m/s 752 mmHg 97%
    21:00 +27°C° 0,6 mm 2 m/s 752 mmHg 97%
    22:00 +27°C° 0,6 mm 2 m/s 753 mmHg 98%
    23:00 +27°C° 1,1 mm 2 m/s 752 mmHg 97%
    Arată mai mult